Content
SEND FEEDBACK

Daily
Averages
Monthly
Summary
Turkmenistan

KURTILE, TURKMENISTAN


Home > Asia > Turkmenistan
Elevation: 748 feet     Latitude: 37 58N     Longitude: 058 19E

WEATHER
 
SELECT A DAY
Number of Records: 183,734;   Date Range: 3/15/97 - 12/26/14
 
SHARE

PRINT THIS DATA

[ ← Previous Day ]
WEATHER ALMANAC - MARCH 26, 2013
[ Next Day → ]
[ °C ]   °F
Weather ElementAverageHighLow
Temperature54 °F64.4 °F (5:00 pm)44.6 °F (1:00 am)
Dewpoint42.5 °F45 °F (11:00 pm)41 °F (1:00 am)
Humidity64.8 %87 % (1:00 am)37 % (5:00 pm)
Barometer30.12 in30.19 in (2:00 am)30.06 in (3:00 pm)
Wind Speed6.3 mph13.4 mph (11:00 am)
Weather ElementAverage
Visibility6.1 mi
Wind DirectionESE (121 °)

Weather ElementTotal
Precipitation---
Heating Degree Days10.5 (Base 65)
Growing Degree Days4.5 (Base 50)
Averaged from 31 records on March 26, 2013
WEATHER CONDITIONS BREAKOUT
WIND DIRECTION BREAKOUT
WEATHER BY HOUR - MARCH 26, 2013
[ °C ]   °F
Local TimeTemperatureDewpointHumidityBarometerVisibilityWind DirectionWind SpeedGust SpeedPrecipitationEventsConditions
1:00 AM44.6 °F41.0 °F87 %30.15 in6.2 miSouth (190°)4.5 mphPartly Cloudy
2:00 AM46.0 °F41.0 °F75 %30.19 in6.0 miSSW (200°)2.2 mphScattered Clouds
2:00 AM44.6 °F41.0 °F87 %30.15 in6.2 miSouth (190°)2.2 mphScattered Clouds
3:00 AM46.4 °F41.0 °F81 %30.15 in6.2 miSSW (200°)2.2 mphMostly Cloudy
4:00 AM46.4 °F41.0 °F81 %30.15 in6.2 miSouth (180°)4.5 mphOvercast
5:00 AM47.0 °F43.0 °F82 %30.17 in6.0 miCalmOvercast
5:00 AM48.2 °F42.8 °F82 %30.12 in6.2 miCalmOvercast
6:00 AM48.2 °F44.6 °F87 %30.15 in6.2 miESE (120°)2.2 mphOvercast
7:00 AM48.2 °F42.8 °F82 %30.15 in6.2 miESE (120°)6.7 mphOvercast
8:00 AM48.0 °F42.0 °F71 %30.19 in6.0 miEast (100°)4.5 mphOvercast
8:00 AM48.2 °F41.0 °F76 %30.15 in6.2 miESE (110°)6.7 mphOvercast
9:00 AM50.0 °F42.8 °F76 %30.15 in6.2 miEast (100°)6.7 mphMostly Cloudy
10:00 AM53.6 °F41.0 °F62 %30.15 in6.2 miEast (90°)8.9 mphMostly Cloudy
11:00 AM55.0 °F41.0 °F47 %30.17 in6.0 miEast (80°)13.4 mphMostly Cloudy
11:00 AM55.4 °F41.0 °F58 %30.15 in6.2 miEast (100°)11.2 mphMostly Cloudy
12:00 PM57.2 °F42.8 °F59 %30.15 in6.2 miSE (130°)11.2 mphMostly Cloudy
1:00 PM59.0 °F41.0 °F51 %30.12 in6.2 miSE (130°)6.7 mphMostly Cloudy
2:00 PM60.0 °F42.0 °F40 %30.13 in6.0 miESE (120°)8.9 mphScattered Clouds
2:00 PM60.8 °F41.0 °F48 %30.09 in6.2 miESE (110°)8.9 mphMostly Cloudy
3:00 PM62.6 °F42.8 °F48 %30.06 in6.2 miEast (100°)11.2 mphPartly Cloudy
4:00 PM62.6 °F44.6 °F52 %30.06 in6.2 miESE (110°)11.2 mphPartly Cloudy
5:00 PM64.0 °F44.0 °F37 %30.06 in6.0 miENE (70°)8.9 mphScattered Clouds
5:00 PM64.4 °F42.8 °F45 %30.06 in6.2 miEast (90°)8.9 mphPartly Cloudy
6:00 PM64.4 °F42.8 °F45 %30.06 in6.2 miENE (70°)6.7 mphPartly Cloudy
7:00 PM60.8 °F42.8 °F52 %30.06 in6.2 miESE (110°)6.7 mphScattered Clouds
8:00 PM59.0 °F42.0 °F43 %30.09 in6.0 miESE (110°)6.7 mphScattered Clouds
8:00 PM57.2 °F44.6 °F63 %30.06 in6.2 miEast (100°)4.5 mphScattered Clouds
9:00 PM55.4 °F44.6 °F67 %30.06 in6.2 miSE (130°)6.7 mphScattered Clouds
10:00 PM53.6 °F44.6 °F72 %30.09 in6.2 miVariable2.2 mphScattered Clouds
11:00 PM52.0 °F45.0 °F71 %30.10 in6.0 miSSW (210°)4.5 mphClear
11:00 PM50.0 °F44.6 °F82 %30.09 in6.2 miWest (260°)4.5 mphPartly Cloudy
Hourly data recorded from UTAA, located miles away from Kurtile, Turkmenistan







STORIES FROM OUR PARTNERS